TimeCDT,TemperatureF,Dew PointF,Humidity,Sea Level PressureIn,VisibilityMPH,Wind Direction,Wind SpeedMPH,Gust SpeedMPH,PrecipitationIn,Events,Conditions,WindDirDegrees,DateUTC
12:03 AM,46.4,46.4,100,29.94,7.0,WSW,9.2,-,N/A,Rain,Light Rain,240,2013-05-04 05:03:00
12:04 AM,46.4,46.4,100,29.94,6.0,WSW,9.2,-,N/A,Rain,Rain,240,2013-05-04 05:04:00
12:34 AM,44.6,44.6,100,29.94,10.0,SW,12.7,-,N/A,Rain,Light Rain,230,2013-05-04 05:34:00
12:51 AM,44.6,44.6,100,29.93,8.0,SSW,6.9,-,N/A,Rain,Light Rain,210,2013-05-04 05:51:00
12:58 AM,44.6,44.6,100,29.94,8.0,SSW,8.1,-,0.10,Rain,Light Rain,210,2013-05-04 05:58:00
1:25 AM,44.6,44.6,100,29.91,10.0,West,10.4,-,N/A,,Light Drizzle,260,2013-05-04 06:25:00
1:29 AM,44.6,44.6,100,29.91,10.0,WSW,11.5,-,N/A,,Light Drizzle,250,2013-05-04 06:29:00
1:55 AM,44.6,44.6,100,29.91,3.0,WSW,6.9,-,N/A,Rain,Rain,250,2013-05-04 06:55:00
1:58 AM,44.1,44.1,100,29.90,3.0,WSW,6.9,-,0.08,Rain,Rain,250,2013-05-04 06:58:00
2:26 AM,42.8,42.8,100,29.90,2.5,WSW,6.9,-,N/A,Rain,Rain,240,2013-05-04 07:26:00
2:40 AM,42.8,42.8,100,29.90,3.0,SW,5.8,-,N/A,Rain,Rain,230,2013-05-04 07:40:00
2:58 AM,43.5,43.5,100,29.90,6.0,SW,6.9,-,0.17,,Drizzle,230,2013-05-04 07:58:00
3:15 AM,42.8,42.8,100,29.89,8.0,SW,3.5,-,N/A,,Light Drizzle,220,2013-05-04 08:15:00
3:21 AM,42.8,42.8,100,29.90,10.0,SW,6.9,-,N/A,,Light Drizzle,230,2013-05-04 08:21:00
3:37 AM,42.8,42.8,100,29.90,4.0,SW,8.1,-,N/A,Rain,Rain,220,2013-05-04 08:37:00
3:40 AM,42.8,42.8,100,29.89,4.0,WSW,5.8,-,N/A,Rain,Rain,240,2013-05-04 08:40:00
3:58 AM,43.3,43.3,100,29.89,6.0,WSW,3.5,-,0.08,Rain,Light Rain,240,2013-05-04 08:58:00
3:59 AM,42.8,42.8,100,29.89,6.0,SW,3.5,-,N/A,Rain,Light Rain,230,2013-05-04 08:59:00
4:01 AM,42.8,42.8,100,29.89,6.0,SW,3.5,-,N/A,Rain,Light Rain,220,2013-05-04 09:01:00
4:13 AM,42.8,42.8,100,29.90,8.0,WSW,5.8,-,N/A,Rain,Light Rain,250,2013-05-04 09:13:00
4:16 AM,42.8,42.8,100,29.90,7.0,WSW,6.9,-,N/A,Rain,Light Rain,240,2013-05-04 09:16:00
4:50 AM,42.8,42.8,100,29.90,5.0,West,5.8,-,N/A,Rain,Rain,260,2013-05-04 09:50:00
4:56 AM,42.8,42.8,100,29.90,4.0,West,3.5,-,N/A,Rain,Rain,270,2013-05-04 09:56:00
4:58 AM,43.0,43.0,100,29.90,4.0,West,3.5,-,0.10,Rain,Rain,260,2013-05-04 09:58:00
5:09 AM,42.8,42.8,100,29.89,5.0,West,2.3,-,N/A,Rain,Rain,280,2013-05-04 10:09:00
5:21 AM,42.8,42.8,100,29.90,6.0,SW,3.5,-,N/A,Rain,Light Rain,220,2013-05-04 10:21:00
5:35 AM,42.8,42.8,100,29.90,7.0,WSW,6.9,-,N/A,Rain,Light Rain,240,2013-05-04 10:35:00
5:46 AM,42.8,42.8,100,29.90,6.0,WSW,4.6,-,N/A,Rain,Light Rain,240,2013-05-04 10:46:00
5:58 AM,43.7,43.7,100,29.91,5.0,West,4.6,-,0.11,Rain,Light Rain,270,2013-05-04 10:58:00
6:58 AM,43.7,43.7,100,29.93,5.0,SW,6.9,-,0.11,,Overcast,220,2013-05-04 11:58:00
7:04 AM,42.8,42.8,100,29.92,6.0,SW,6.9,-,N/A,Rain,Light Rain,230,2013-05-04 12:04:00
7:08 AM,42.8,42.8,100,29.92,6.0,SW,6.9,-,N/A,Rain,Light Rain,230,2013-05-04 12:08:00
7:10 AM,42.8,42.8,100,29.92,6.0,SW,6.9,-,N/A,Rain,Light Rain,230,2013-05-04 12:10:00
7:11 AM,42.8,42.8,100,29.92,7.0,SW,5.8,-,N/A,Rain,Light Rain,230,2013-05-04 12:11:00
7:23 AM,42.8,42.8,100,29.91,8.0,SW,4.6,-,N/A,Rain,Light Rain,230,2013-05-04 12:23:00
7:30 AM,42.8,42.8,100,29.92,9.0,SW,4.6,-,N/A,Rain,Light Rain,220,2013-05-04 12:30:00
7:42 AM,44.6,44.6,100,29.93,6.0,SW,9.2,-,N/A,Rain,Light Rain,230,2013-05-04 12:42:00
7:57 AM,42.8,42.8,100,29.93,9.0,WSW,8.1,-,N/A,,Light Drizzle,250,2013-05-04 12:57:00
7:58 AM,42.8,42.8,100,29.94,8.0,WSW,8.1,-,0.06,Rain,Light Rain,250,2013-05-04 12:58:00
8:00 AM,42.8,42.8,100,29.93,5.0,WSW,6.9,-,N/A,Rain,Light Rain,250,2013-05-04 13:00:00
8:13 AM,44.6,44.6,100,29.93,5.0,SW,6.9,-,N/A,Rain,Light Rain,230,2013-05-04 13:13:00
8:14 AM,44.6,44.6,100,29.93,5.0,SW,8.1,-,N/A,Rain,Light Rain,230,2013-05-04 13:14:00
8:16 AM,44.6,44.6,100,29.93,6.0,SW,8.1,-,N/A,Rain,Light Rain,230,2013-05-04 13:16:00
8:39 AM,42.8,42.8,100,29.93,5.0,WSW,6.9,-,N/A,Rain,Light Rain,240,2013-05-04 13:39:00
8:40 AM,42.8,42.8,100,29.93,5.0,WSW,6.9,-,N/A,Rain,Light Rain,250,2013-05-04 13:40:00
8:57 AM,44.6,44.6,100,29.93,8.0,West,9.2,-,N/A,Rain,Light Rain,260,2013-05-04 13:57:00
8:58 AM,44.6,44.6,100,29.94,9.0,WSW,9.2,-,0.10,Rain,Light Rain,250,2013-05-04 13:58:00
8:59 AM,44.6,44.6,100,29.93,9.0,WSW,10.4,-,N/A,,Light Drizzle,250,2013-05-04 13:59:00
9:04 AM,44.6,44.6,100,29.94,10.0,WSW,12.7,-,N/A,,Light Drizzle,240,2013-05-04 14:04:00
9:08 AM,44.6,44.6,100,29.95,9.0,SW,11.5,-,N/A,Rain,Light Rain,230,2013-05-04 14:08:00
9:09 AM,44.6,44.6,100,29.95,9.0,SW,11.5,-,N/A,Rain,Light Rain,230,2013-05-04 14:09:00
9:34 AM,44.6,44.6,100,29.95,10.0,WSW,10.4,-,N/A,,Light Drizzle,250,2013-05-04 14:34:00
9:44 AM,44.6,44.6,100,29.95,7.0,West,8.1,-,N/A,,Heavy Drizzle,260,2013-05-04 14:44:00
9:49 AM,42.8,42.8,100,29.96,7.0,WSW,9.2,-,N/A,,Light Drizzle,240,2013-05-04 14:49:00
9:58 AM,43.7,43.7,100,29.97,10.0,WSW,6.9,-,0.02,,Light Drizzle,250,2013-05-04 14:58:00
10:02 AM,44.6,44.6,100,29.96,9.0,WSW,9.2,-,N/A,,Light Drizzle,250,2013-05-04 15:02:00
10:09 AM,44.6,44.6,100,29.96,10.0,West,8.1,-,N/A,,Light Drizzle,260,2013-05-04 15:09:00
10:17 AM,44.6,44.6,100,29.96,10.0,WSW,8.1,-,N/A,,Overcast,240,2013-05-04 15:17:00
10:25 AM,44.6,44.6,100,29.96,10.0,WSW,5.8,-,N/A,,Overcast,240,2013-05-04 15:25:00
10:29 AM,44.6,44.6,100,29.96,10.0,West,6.9,-,N/A,,Overcast,260,2013-05-04 15:29:00
10:41 AM,44.6,44.6,100,29.96,10.0,West,5.8,-,N/A,,Overcast,260,2013-05-04 15:41:00
10:58 AM,45.1,44.6,98,29.98,10.0,WSW,6.9,-,0.00,,Overcast,240,2013-05-04 15:58:00
11:39 AM,44.6,44.6,100,29.97,10.0,WSW,5.8,-,N/A,,Light Drizzle,250,2013-05-04 16:39:00
11:48 AM,44.6,44.6,100,29.97,10.0,West,3.5,-,N/A,,Overcast,280,2013-05-04 16:48:00
11:58 AM,45.7,44.6,96,29.99,10.0,SW,4.6,-,0.00,,Overcast,230,2013-05-04 16:58:00
12:15 PM,46.4,44.6,93,29.98,10.0,South,9.2,-,N/A,,Light Drizzle,190,2013-05-04 17:15:00
12:26 PM,46.4,42.8,87,29.97,10.0,SW,6.9,-,N/A,,Overcast,220,2013-05-04 17:26:00
12:45 PM,46.4,41.0,81,29.97,10.0,SW,5.8,-,N/A,,Overcast,220,2013-05-04 17:45:00
12:58 PM,46.6,40.5,79,29.98,10.0,SSW,3.5,-,0.00,,Overcast,200,2013-05-04 17:58:00
1:58 PM,47.8,40.6,76,29.98,10.0,South,3.5,-,N/A,,Overcast,190,2013-05-04 18:58:00
2:02 PM,48.2,41.0,76,29.96,10.0,Variable,1.2,-,N/A,,Overcast,0,2013-05-04 19:02:00
2:08 PM,48.2,42.8,82,29.95,10.0,SE,5.8,-,N/A,,Overcast,130,2013-05-04 19:08:00
2:18 PM,48.2,41.0,76,29.96,10.0,Variable,1.2,-,N/A,,Overcast,0,2013-05-04 19:18:00
2:58 PM,50.4,40.6,69,29.97,10.0,ESE,2.3,-,N/A,,Overcast,110,2013-05-04 19:58:00
3:08 PM,50.0,41.0,71,29.96,10.0,Variable,1.2,-,N/A,,Overcast,0,2013-05-04 20:08:00
3:41 PM,50.0,39.2,66,29.96,10.0,SSE,2.3,-,N/A,,Overcast,150,2013-05-04 20:41:00
3:44 PM,50.0,41.0,71,29.96,10.0,SSE,2.3,-,N/A,,Overcast,150,2013-05-04 20:44:00
3:58 PM,49.6,40.6,71,29.97,10.0,SSE,1.2,-,N/A,,Overcast,160,2013-05-04 20:58:00
3:59 PM,50.0,41.0,71,29.96,10.0,Variable,2.3,-,N/A,,Overcast,0,2013-05-04 20:59:00
4:58 PM,49.6,42.3,76,29.97,10.0,NE,4.6,-,N/A,,Overcast,40,2013-05-04 21:58:00
5:58 PM,49.6,41.0,72,29.97,10.0,NE,5.8,-,N/A,,Mostly Cloudy,50,2013-05-04 22:58:00
6:58 PM,48.9,44.4,84,29.97,10.0,ENE,6.9,-,N/A,,Overcast,60,2013-05-04 23:58:00
7:58 PM,48.2,45.1,89,29.98,10.0,ENE,6.9,-,0.01,,Overcast,70,2013-05-05 00:58:00
8:25 PM,48.2,46.4,93,29.97,10.0,ENE,2.3,-,N/A,,Light Drizzle,60,2013-05-05 01:25:00
8:40 PM,48.2,46.4,93,29.96,10.0,ENE,2.3,-,N/A,,Mostly Cloudy,70,2013-05-05 01:40:00
8:48 PM,48.2,46.4,93,29.97,10.0,East,5.8,-,N/A,,Light Drizzle,90,2013-05-05 01:48:00
8:58 PM,47.7,47.1,98,29.97,10.0,NE,5.8,-,0.00,,Drizzle,50,2013-05-05 01:58:00
9:12 PM,46.4,46.4,100,29.97,10.0,SE,3.5,-,N/A,,Mostly Cloudy,130,2013-05-05 02:12:00
9:34 PM,46.4,44.6,93,29.97,10.0,ENE,8.1,-,N/A,,Light Drizzle,70,2013-05-05 02:34:00
9:39 PM,46.4,44.6,93,29.96,9.0,ENE,8.1,-,N/A,Rain,Light Rain,60,2013-05-05 02:39:00
9:54 PM,46.4,46.4,100,29.97,10.0,ENE,9.2,-,N/A,Rain,Light Rain,70,2013-05-05 02:54:00
9:58 PM,46.4,46.4,100,29.97,10.0,ENE,9.2,-,0.04,Rain,Light Rain,60,2013-05-05 02:58:00
10:44 PM,46.4,46.4,100,29.95,10.0,ENE,3.5,-,N/A,,Mostly Cloudy,70,2013-05-05 03:44:00
10:58 PM,45.9,45.9,100,29.95,10.0,NE,4.6,-,0.02,,Overcast,50,2013-05-05 03:58:00
11:11 PM,46.4,46.4,100,29.95,10.0,East,4.6,-,N/A,,Light Drizzle,80,2013-05-05 04:11:00
11:20 PM,46.4,46.4,100,29.95,10.0,East,4.6,-,N/A,,Overcast,90,2013-05-05 04:20:00
11:25 PM,46.4,46.4,100,29.95,10.0,East,4.6,-,N/A,,Overcast,100,2013-05-05 04:25:00
11:35 PM,46.4,46.4,100,29.95,10.0,NE,5.8,-,N/A,,Drizzle,50,2013-05-05 04:35:00
11:41 PM,46.4,46.4,100,29.94,10.0,NE,6.9,-,N/A,,Light Drizzle,50,2013-05-05 04:41:00
11:58 PM,46.0,46.0,100,29.96,10.0,NE,5.8,-,0.00,,Light Drizzle,50,2013-05-05 04:58:00
11:59 PM,46.4,46.4,100,29.95,10.0,NE,6.9,-,N/A,,Light Drizzle,50,2013-05-05 04:59:00